Location: Val-d'Or
(48.1170°N, 77.7670°W)
Time: 01:09:45
(UTC-04:00)

ISS - Pass Details

Date: 20 May 2018
Orbit: 402 x 407 km, 51.6° (Epoch: 21 May)

Event Time Altitude Azimuth Distance (km) Brightness Sun altitude
Exits shadow 00:16:29 40° 56° (NE) 608 -2.9 -21.0°
Drops below altitude 10° 00:18:44 10° 66° (ENE) 1,459 -0.9 -21.0°
Sets 00:20:50 0° 69° (ENE) 2,319 0.1 -21.1°
